EUTELSAT 172B

Last updated on Aug. 5, 2020, 5:33 a.m. UTC

1 42741U 17029B   20217.83938810 -.00000023  00000-0  00000-0 0  9995
2 42741   0.0243 104.2908 0000220  24.1667 299.5731  1.00269563 12239
UTC
Height (km)
Latitude
Longitude
Inclination
Orbital Period
UTC large
Height (km)
Speed (km/s)
/
Latitude / Longitude
Inclination (degrees)
Orbital Period (minutes)
Azimuth
Elevation
Range (km)
Doppler Factor
iOS Compass Heading
iOS Angle

Next 30 passes for location: Hong Kong

Rise time Rise Azimuth (degrees) Set time Set Azimuth (degrees) Duration Max altitude (degrees)

No matching passes for this satellites